When you browse on this site, cookies collect data to enhance your experience and personalize the content and advertising you see.
Visit our Privacy Policy to learn more. By continuing to use the site, you agree to this use of cookies and data.
  • Em Portugal
  • Lista de países
  • Para 7 dias
  • Temperatura da água
  • Mapas de satélite
  • Mapa do tempo
  • Widgets de tempo
  • user-avatar
    Iniciar Sessão

    Previsão horária em Graz

    Hoje, 24 Março, Domingo

    Tempo Temperatura Precipitação Vento Pressão Humidade
    00:00 +10°C° 0 mm 1 m/s 730 mmHg 76%
    01:00 +9°C° 0 mm 1 m/s 730 mmHg 75%
    02:00 +9°C° 0 mm 1 m/s 730 mmHg 75%
    03:00 +9°C° 0 mm 1 m/s 729 mmHg 76%
    04:00 +9°C° 0 mm 1 m/s 729 mmHg 76%
    05:00 +9°C° 0 mm 1 m/s 729 mmHg 75%
    06:00 +9°C° 0 mm 1 m/s 729 mmHg 74%
    07:00 +10°C° 0 mm 1 m/s 729 mmHg 73%
    08:00 +12°C° 0 mm 1 m/s 729 mmHg 64%
    09:00 +15°C° 0 mm 1 m/s 729 mmHg 56%
    10:00 +19°C° 0 mm 1 m/s 728 mmHg 47%
    11:00 +20°C° 0 mm 1 m/s 728 mmHg 45%
    12:00 +21°C° 0 mm 1 m/s 727 mmHg 42%
    13:00 +20°C° 0 mm 2 m/s 727 mmHg 40%
    14:00 +20°C° 0 mm 2 m/s 727 mmHg 41%
    15:00 +20°C° 0 mm 2 m/s 726 mmHg 41%
    16:00 +20°C° 0 mm 2 m/s 726 mmHg 42%
    17:00 +19°C° 0 mm 1 m/s 725 mmHg 50%
    18:00 +15°C° 0 mm 1 m/s 725 mmHg 58%
    19:00 +12°C° 0 mm 0 m/s 724 mmHg 67%
    20:00 +13°C° 0 mm 1 m/s 725 mmHg 69%
    21:00 +12°C° 0 mm 1 m/s 725 mmHg 72%
    22:00 +12°C° 0 mm 1 m/s 725 mmHg 75%
    23:00 +12°C° 0 mm 1 m/s 725 mmHg 75%

    Amanhã, 25 Março, Segunda-feira

    Tempo Temperatura Precipitação Vento Pressão Humidade
    00:00 +12°C° 0 mm 1 m/s 725 mmHg 76%
    01:00 +12°C° 0 mm 1 m/s 725 mmHg 77%
    02:00 +11°C° 0.1 mm 1 m/s 724 mmHg 79%
    03:00 +11°C° 0.1 mm 1 m/s 724 mmHg 81%
    04:00 +10°C° 0.1 mm 1 m/s 723 mmHg 83%
    05:00 +10°C° 0.1 mm 1 m/s 723 mmHg 83%
    06:00 +10°C° 0.1 mm 1 m/s 723 mmHg 83%
    07:00 +10°C° 0.1 mm 1 m/s 723 mmHg 83%
    08:00 +11°C° 0.1 mm 1 m/s 723 mmHg 77%
    09:00 +13°C° 0.1 mm 1 m/s 723 mmHg 71%
    10:00 +14°C° 0.1 mm 1 m/s 723 mmHg 65%
    11:00 +14°C° 0.4 mm 1 m/s 723 mmHg 67%
    12:00 +14°C° 0.4 mm 1 m/s 722 mmHg 68%
    13:00 +13°C° 0.4 mm 2 m/s 722 mmHg 69%
    14:00 +12°C° 1.6 mm 2 m/s 722 mmHg 73%
    15:00 +10°C° 1.6 mm 2 m/s 722 mmHg 77%
    16:00 +9°C° 1.6 mm 2 m/s 721 mmHg 81%
    17:00 +8°C° 1.1 mm 2 m/s 722 mmHg 79%
    18:00 +7°C° 1.1 mm 2 m/s 722 mmHg 78%
    19:00 +7°C° 1.1 mm 1 m/s 723 mmHg 77%
    20:00 +7°C° 0.6 mm 1 m/s 724 mmHg 77%
    21:00 +6°C° 0.6 mm 1 m/s 725 mmHg 78%
    22:00 +5°C° 0.6 mm 1 m/s 726 mmHg 79%
    23:00 +5°C° 0.1 mm 1 m/s 726 mmHg 79%

    Depois de amanhã, 26 Março, Terça-feira

    Tempo Temperatura Precipitação Vento Pressão Humidade
    00:00 +4°C° 0.1 mm 1 m/s 727 mmHg 80%
    01:00 +4°C° 0.1 mm 1 m/s 727 mmHg 80%
    02:00 +4°C° 0 mm 1 m/s 728 mmHg 80%
    03:00 +4°C° 0 mm 1 m/s 728 mmHg 79%
    04:00 +3°C° 0 mm 2 m/s 728 mmHg 79%
    05:00 +3°C° 0 mm 2 m/s 729 mmHg 77%
    06:00 +3°C° 0 mm 2 m/s 729 mmHg 76%
    07:00 +3°C° 0 mm 2 m/s 729 mmHg 75%
    08:00 +4°C° 0 mm 2 m/s 730 mmHg 67%
    09:00 +5°C° 0 mm 3 m/s 730 mmHg 59%
    10:00 +7°C° 0 mm 3 m/s 730 mmHg 51%
    11:00 +8°C° 0 mm 3 m/s 730 mmHg 48%
    12:00 +9°C° 0 mm 3 m/s 730 mmHg 44%
    13:00 +10°C° 0 mm 3 m/s 730 mmHg 41%
    14:00 +9°C° 0 mm 3 m/s 730 mmHg 41%
    15:00 +9°C° 0 mm 3 m/s 730 mmHg 42%
    16:00 +9°C° 0 mm 3 m/s 730 mmHg 43%
    17:00 +7°C° 0 mm 3 m/s 730 mmHg 51%
    18:00 +5°C° 0 mm 2 m/s 730 mmHg 59%
    19:00 +4°C° 0 mm 2 m/s 730 mmHg 67%
    20:00 +3°C° 0 mm 2 m/s 731 mmHg 70%
    21:00 +2°C° 0 mm 2 m/s 731 mmHg 73%
    22:00 +2°C° 0 mm 2 m/s 731 mmHg 76%
    23:00 +2°C° 0 mm 2 m/s 731 mmHg 76%

    27 Março, Quarta-feira

    Tempo Temperatura Precipitação Vento Pressão Humidade
    00:00 +2°C° 0 mm 1 m/s 731 mmHg 76%
    01:00 +2°C° 0 mm 1 m/s 731 mmHg 77%
    02:00 +2°C° 0 mm 1 m/s 731 mmHg 77%
    03:00 +2°C° 0 mm 1 m/s 731 mmHg 77%
    04:00 +2°C° 0 mm 1 m/s 731 mmHg 77%
    05:00 +3°C° 0 mm 1 m/s 732 mmHg 76%
    06:00 +3°C° 0 mm 1 m/s 732 mmHg 75%
    07:00 +4°C° 0 mm 1 m/s 732 mmHg 74%
    08:00 +6°C° 0 mm 1 m/s 732 mmHg 66%
    09:00 +8°C° 0 mm 1 m/s 732 mmHg 59%
    10:00 +10°C° 0 mm 1 m/s 733 mmHg 52%
    11:00 +10°C° 0 mm 1 m/s 732 mmHg 51%
    12:00 +10°C° 0 mm 1 m/s 732 mmHg 50%
    13:00 +10°C° 0 mm 1 m/s 732 mmHg 49%
    14:00 +9°C° 0 mm 2 m/s 732 mmHg 49%
    15:00 +9°C° 0 mm 2 m/s 732 mmHg 50%
    16:00 +9°C° 0 mm 2 m/s 732 mmHg 51%
    17:00 +8°C° 0 mm 1 m/s 732 mmHg 57%
    18:00 +7°C° 0 mm 1 m/s 732 mmHg 64%
    19:00 +5°C° 0 mm 1 m/s 733 mmHg 70%
    20:00 +5°C° 0 mm 1 m/s 733 mmHg 73%
    21:00 +4°C° 0 mm 1 m/s 733 mmHg 77%
    22:00 +3°C° 0 mm 1 m/s 734 mmHg 80%
    23:00 +3°C° 0 mm 1 m/s 734 mmHg 81%

    28 Março, Quinta-feira

    Tempo Temperatura Precipitação Vento Pressão Humidade
    00:00 +3°C° 0 mm 1 m/s 734 mmHg 81%
    01:00 +3°C° 0 mm 1 m/s 734 mmHg 82%
    02:00 +2°C° 0 mm 1 m/s 734 mmHg 82%
    03:00 +2°C° 0 mm 1 m/s 733 mmHg 82%
    04:00 +2°C° 0 mm 1 m/s 733 mmHg 82%
    05:00 +3°C° 0 mm 1 m/s 734 mmHg 79%
    06:00 +4°C° 0 mm 1 m/s 734 mmHg 76%
    07:00 +5°C° 0 mm 1 m/s 734 mmHg 73%
    08:00 +7°C° 0 mm 1 m/s 734 mmHg 66%
    09:00 +9°C° 0 mm 1 m/s 734 mmHg 60%
    10:00 +11°C° 0 mm 1 m/s 734 mmHg 53%
    11:00 +11°C° 0 mm 1 m/s 734 mmHg 52%
    12:00 +12°C° 0 mm 1 m/s 734 mmHg 52%
    13:00 +12°C° 0 mm 1 m/s 734 mmHg 52%
    14:00 +12°C° 0 mm 1 m/s 733 mmHg 52%
    15:00 +12°C° 0 mm 2 m/s 733 mmHg 53%
    16:00 +12°C° 0 mm 2 m/s 733 mmHg 53%
    17:00 +10°C° 0 mm 1 m/s 733 mmHg 61%
    18:00 +8°C° 0 mm 1 m/s 733 mmHg 68%
    19:00 +6°C° 0 mm 0 m/s 733 mmHg 75%
    20:00 +6°C° 0 mm 0 m/s 733 mmHg 76%
    21:00 +5°C° 0 mm 0 m/s 734 mmHg 78%
    22:00 +6°C° 0 mm 1 m/s 734 mmHg 79%
    23:00 +6°C° 0 mm 1 m/s 734 mmHg 81%

    29 Março, Sexta-feira

    Tempo Temperatura Precipitação Vento Pressão Humidade
    00:00 +5°C° 0 mm 1 m/s 734 mmHg 82%
    01:00 +5°C° 0 mm 1 m/s 734 mmHg 84%
    02:00 +5°C° 0 mm 1 m/s 734 mmHg 85%
    03:00 +4°C° 0 mm 1 m/s 734 mmHg 86%
    04:00 +4°C° 0 mm 1 m/s 734 mmHg 87%
    05:00 +5°C° 0 mm 1 m/s 734 mmHg 85%
    06:00 +5°C° 0 mm 1 m/s 734 mmHg 82%
    07:00 +6°C° 0 mm 1 m/s 734 mmHg 80%
    08:00 +8°C° 0 mm 1 m/s 734 mmHg 71%
    09:00 +10°C° 0 mm 1 m/s 734 mmHg 61%
    10:00 +12°C° 0 mm 1 m/s 734 mmHg 52%
    11:00 +13°C° 0 mm 1 m/s 734 mmHg 49%
    12:00 +14°C° 0 mm 2 m/s 733 mmHg 46%
    13:00 +14°C° 0 mm 2 m/s 733 mmHg 44%
    14:00 +14°C° 0 mm 2 m/s 733 mmHg 45%
    15:00 +14°C° 0 mm 2 m/s 732 mmHg 46%
    16:00 +13°C° 0 mm 2 m/s 732 mmHg 48%
    17:00 +11°C° 0 mm 1 m/s 732 mmHg 55%
    18:00 +9°C° 0 mm 1 m/s 732 mmHg 62%
    19:00 +7°C° 0 mm 0 m/s 732 mmHg 70%
    20:00 +6°C° 0 mm 0 m/s 732 mmHg 71%
    21:00 +6°C° 0 mm 0 m/s 732 mmHg 72%
    22:00 +6°C° 0 mm 1 m/s 732 mmHg 74%
    23:00 +6°C° 0 mm 1 m/s 732 mmHg 75%
    Mostrar mais